Dark Flareon

Dark Flareon
0 Ratings
Card # / Rarity 35 / Uncommon
Type / Stage Fire / Stage 1
Attacks

[1] Rage (10+)
Does 10 damage plus 10 more damage for each damage counter on Dark Flareon.

[RR] Playing with Fire (30+)
Use this attack only if there are any Fire Energy cards attached to Dark Flareon. Flip a coin. If heads, discard 1 of those Energy cards and this attack does 30 damage plus 20 more damage. If tails, this attack does 30 damage.

Other W / None / 1
Set Team Rocket
Character(s) Flareon /
Current Price

$8.65 6.27%

Last 7 Days 218.01%
Last 30 Days 0%
YTD 183.61%
TEAM ROCKET
TOP 10

PRICE HISTORY


Date
Price
Trend
2023-01-26 00:00:00<.span> Jan 26th, 2023 12AM $2.72 -
2023-01-21 18:00:00<.span> Jan 21st, 2023 6PM $2.78 $0.06
2023-01-21 16:00:00<.span> Jan 21st, 2023 4PM $2.78 -
2023-01-21 14:00:00<.span> Jan 21st, 2023 2PM $2.78 -
2023-01-21 12:00:00<.span> Jan 21st, 2023 12PM $2.78 -
2023-01-21 10:00:00<.span> Jan 21st, 2023 10AM $2.78 -
2023-01-21 08:00:00<.span> Jan 21st, 2023 8AM $2.78 -
2023-01-20 10:00:00<.span> Jan 20th, 2023 10AM $2.86 $0.08
2023-01-17 18:00:00<.span> Jan 17th, 2023 6PM $2.82 $-0.04
2023-01-17 16:00:00<.span> Jan 17th, 2023 4PM $2.86 $0.04
2023-01-17 14:00:00<.span> Jan 17th, 2023 2PM $2.86 -
2023-01-17 12:00:00<.span> Jan 17th, 2023 12PM $2.86 -
2023-01-17 10:00:00<.span> Jan 17th, 2023 10AM $2.86 -
2023-01-17 08:00:00<.span> Jan 17th, 2023 8AM $2.86 -
2023-01-17 06:00:00<.span> Jan 17th, 2023 6AM $2.86 -
2023-01-17 04:00:00<.span> Jan 17th, 2023 4AM $2.86 -
2023-01-17 02:00:00<.span> Jan 17th, 2023 2AM $2.86 -
2023-01-17 00:00:00<.span> Jan 17th, 2023 12AM $2.85 $-0.01
2023-01-16 22:00:00<.span> Jan 16th, 2023 10PM $2.85 -
2023-01-16 20:00:00<.span> Jan 16th, 2023 8PM $2.85 -
2023-01-16 18:00:00<.span> Jan 16th, 2023 6PM $2.85 -
2023-01-16 16:00:00<.span> Jan 16th, 2023 4PM $2.85 -
2023-01-16 14:00:00<.span> Jan 16th, 2023 2PM $2.85 -
2023-01-16 12:00:00<.span> Jan 16th, 2023 12PM $2.85 -
2023-01-16 10:00:00<.span> Jan 16th, 2023 10AM $2.85 -
2023-01-16 08:00:00<.span> Jan 16th, 2023 8AM $2.85 -
2023-01-16 06:00:00<.span> Jan 16th, 2023 6AM $2.85 -
2023-01-16 04:00:00<.span> Jan 16th, 2023 4AM $2.85 -
2023-01-16 02:00:00<.span> Jan 16th, 2023 2AM $2.85 -
2023-01-16 00:00:00<.span> Jan 16th, 2023 12AM $2.85 -
2023-01-15 22:00:00<.span> Jan 15th, 2023 10PM $2.85 -
2023-01-15 20:00:00<.span> Jan 15th, 2023 8PM $2.85 -
2023-01-15 18:00:00<.span> Jan 15th, 2023 6PM $2.85 -
2023-01-15 16:00:00<.span> Jan 15th, 2023 4PM $2.85 -
2023-01-15 14:00:00<.span> Jan 15th, 2023 2PM $2.85 -
2023-01-15 12:00:00<.span> Jan 15th, 2023 12PM $2.85 -
2023-01-15 10:00:00<.span> Jan 15th, 2023 10AM $2.85 -
2023-01-15 08:00:00<.span> Jan 15th, 2023 8AM $2.85 -
2023-01-15 06:00:00<.span> Jan 15th, 2023 6AM $2.85 -
2023-01-15 04:00:00<.span> Jan 15th, 2023 4AM $2.83 $-0.02
2023-01-15 02:00:00<.span> Jan 15th, 2023 2AM $2.83 -
2023-01-15 00:00:00<.span> Jan 15th, 2023 12AM $2.83 -
2023-01-14 22:00:00<.span> Jan 14th, 2023 10PM $2.83 -
2023-01-14 20:00:00<.span> Jan 14th, 2023 8PM $2.83 -
2023-01-14 18:00:00<.span> Jan 14th, 2023 6PM $2.83 -
2023-01-14 16:00:00<.span> Jan 14th, 2023 4PM $2.83 -
2023-01-14 14:00:00<.span> Jan 14th, 2023 2PM $2.83 -
2023-01-14 12:00:00<.span> Jan 14th, 2023 12PM $2.83 -
2023-01-14 08:00:00<.span> Jan 14th, 2023 8AM $2.84 $0.01
2023-01-14 06:00:00<.span> Jan 14th, 2023 6AM $2.84 -
2023-01-14 04:00:00<.span> Jan 14th, 2023 4AM $2.87 $0.03
2023-01-14 02:00:00<.span> Jan 14th, 2023 2AM $2.87 -
2023-01-14 00:00:00<.span> Jan 14th, 2023 12AM $2.87 -
2023-01-13 22:00:00<.span> Jan 13th, 2023 10PM $2.87 -
2023-01-13 20:00:00<.span> Jan 13th, 2023 8PM $2.87 -
2023-01-13 18:00:00<.span> Jan 13th, 2023 6PM $2.87 -
2023-01-13 02:00:00<.span> Jan 13th, 2023 2AM $2.86 $-0.01
2023-01-13 00:00:00<.span> Jan 13th, 2023 12AM $2.86 -
2023-01-12 22:00:00<.span> Jan 12th, 2023 10PM $2.86 -
2023-01-12 20:00:00<.span> Jan 12th, 2023 8PM $2.86 -
2023-01-12 18:00:00<.span> Jan 12th, 2023 6PM $2.86 -
2023-01-12 16:00:00<.span> Jan 12th, 2023 4PM $2.86 -
2023-01-12 14:00:00<.span> Jan 12th, 2023 2PM $2.86 -
2023-01-12 12:00:00<.span> Jan 12th, 2023 12PM $2.86 -
2023-01-12 10:00:00<.span> Jan 12th, 2023 10AM $2.86 -
2023-01-12 08:00:00<.span> Jan 12th, 2023 8AM $2.86 -
2023-01-12 06:00:00<.span> Jan 12th, 2023 6AM $2.86 -
2023-01-12 04:00:00<.span> Jan 12th, 2023 4AM $2.86 -
2023-01-12 02:00:00<.span> Jan 12th, 2023 2AM $2.86 -
2023-01-11 06:00:00<.span> Jan 11th, 2023 6AM $2.95 $0.09
2023-01-10 18:00:00<.span> Jan 10th, 2023 6PM $2.96 $0.01
2023-01-10 02:00:00<.span> Jan 10th, 2023 2AM $2.95 $-0.01
2023-01-09 20:00:00<.span> Jan 9th, 2023 8PM $2.96 $0.01
2023-01-09 18:00:00<.span> Jan 9th, 2023 6PM $2.99 $0.03
2023-01-09 06:00:00<.span> Jan 9th, 2023 6AM $2.98 $-0.01
2023-01-08 10:00:00<.span> Jan 8th, 2023 10AM $2.99 $0.01
2023-01-08 06:00:00<.span> Jan 8th, 2023 6AM $2.96 $-0.03
2023-01-07 06:00:00<.span> Jan 7th, 2023 6AM $2.99 $0.03
2023-01-06 22:00:00<.span> Jan 6th, 2023 10PM $3.01 $0.02
2023-01-05 18:00:00<.span> Jan 5th, 2023 6PM $3.03 $0.02
2023-01-05 04:00:00<.span> Jan 5th, 2023 4AM $3.07 $0.04
2023-01-04 14:00:00<.span> Jan 4th, 2023 2PM $3.06 $-0.01
2023-01-03 22:00:00<.span> Jan 3rd, 2023 10PM $3.05 $-0.01
2022-12-31 00:00:00<.span> Dec 31st, 2022 12AM $3.06 $0.01
2022-12-29 00:00:00<.span> Dec 29th, 2022 12AM $3.02 $-0.04
2022-12-28 20:00:00<.span> Dec 28th, 2022 8PM $3.00 $-0.02
2022-12-28 18:00:00<.span> Dec 28th, 2022 6PM $3.00 -
2022-12-28 16:00:00<.span> Dec 28th, 2022 4PM $3.00 -
2022-12-28 14:00:00<.span> Dec 28th, 2022 2PM $3.00 -
2022-12-28 12:00:00<.span> Dec 28th, 2022 12PM $3.00 -
2022-12-28 10:00:00<.span> Dec 28th, 2022 10AM $3.00 -
2022-12-28 08:00:00<.span> Dec 28th, 2022 8AM $3.00 -
2022-12-28 06:00:00<.span> Dec 28th, 2022 6AM $3.00 -
2022-12-28 02:00:00<.span> Dec 28th, 2022 2AM $3.02 $0.02
2022-12-28 00:00:00<.span> Dec 28th, 2022 12AM $3.02 -
2022-12-27 22:00:00<.span> Dec 27th, 2022 10PM $2.99 $-0.03
2022-12-27 20:00:00<.span> Dec 27th, 2022 8PM $2.99 -
2022-12-27 18:00:00<.span> Dec 27th, 2022 6PM $2.99 -
2022-12-27 16:00:00<.span> Dec 27th, 2022 4PM $2.99 -
2022-12-27 14:00:00<.span> Dec 27th, 2022 2PM $2.99 -

Dark Flareon Pokemon Products

Checkout the latest Pokemon Card Products for Dark Flareon. Complete with prices and trends.

Triple Effect Tin [Flareon]

Triple Effect Tin Flareon

— 0%

Flareon GX Special Collection

Flareon GX Special Collection

$79.99-18%

Elemental Power Tin [Flareon GX]

Elemental Power Tin Flareon GX

$47.7518%

Darkness Ablaze 3 Pack Blister [Flareon]

Darkness Ablaze 3 Pack Blister Flareon

$19.488%

Name
Set
Rarity
Price
Trend
Flareon Flareon Flareon Ancient Origins Uncommon $ 0.93 4.49%
Flareon (19) Flareon 19 Flareon 19 Jungle Rare $ 21.20 -0.38%
Flareon EX Flareon EX Flareon EX Generations: Radiant Collection Ultra Rare $ 10.86 2.55%
Flareon EX (Full Art) Flareon EX Full Art Flareon EX Full Art Generations: Radiant Collection Ultra Rare $ 30.14 1.65%
Flareon GX - SM171 Flareon GX SM171 Flareon GX SM171 Sun & Moon Promos Promo $ 3.76 -0.79%
Flareon GX - SM171 (SM Black Star Promo) Flareon GX SM171 SM Black Star Promo Flareon GX SM171 SM Black Star Promo Jumbo Cards Promo $ 15.23 -4.69%
Flareon - SM186 (Let's Play, Eevee!) Flareon SM186 Lets Play Eevee Flareon SM186 Lets Play Eevee Sun & Moon Promos Promo $ 1.69 3.68%
Flareon Flareon Flareon Cosmic Eclipse Uncommon $ 1.50 5.63%
Flareon - 13/98 (Cosmos Holo) Flareon 13 98 Cosmos Holo Flareon 13 98 Cosmos Holo Miscellaneous Cards & Products Promo $ 4.06 -1.69%
Flareon - SWSH041 Flareon SWSH041 Flareon SWSH041 Sword & Shield Promo Cards Promo $ 4.36 0.46%
Flareon Flareon Flareon Vivid Voltage Rare $ 0.35 2.94%
Flareon VMAX Flareon VMAX Flareon VMAX Evolving Skies Ultra Rare $ 3.72 -1.06%
Flareon V (Full Art) Flareon V Full Art Flareon V Full Art Evolving Skies Ultra Rare $ 11.24 0.18%
Flareon V - SWSH149 Flareon V SWSH149 Flareon V SWSH149 Sword & Shield Promo Cards Promo $ 2.07 -0.48%
Flareon - 026/185 (Cosmos Holo) Flareon 026 185 Cosmos Holo Flareon 026 185 Cosmos Holo Miscellaneous Cards & Products Promo $ 1.42 -4.05%
Flareon V - SWSH179 Flareon V SWSH179 Flareon V SWSH179 Sword & Shield Promo Cards Promo $ 15.82 -0.13%
Flareon VMAX - SWSH180 Flareon VMAX SWSH180 Flareon VMAX SWSH180 Sword & Shield Promo Cards Promo $ 11.41 0.09%
Flareon Flareon Flareon Brilliant Stars Trainer Gallery Ultra Rare $ 2.82 -2.08%
Flareon (3) Flareon 3 Flareon 3 Jungle Holo Rare $ 43.64 1.25%
Dark Flareon Dark Flareon Dark Flareon Team Rocket Uncommon $ 8.65 1.76%
Flareon Flareon Flareon Sandstorm Holo Rare $ 73.59 9.85%
Flareon (H7) Flareon H7 Flareon H7 Skyridge Holo Rare $ 200.00 14.29%
Flareon Flareon Flareon Skyridge Rare $ 9.00 -10.00%
Flareon Flareon Flareon Legendary Collection Holo Rare $ 170.98 -11.40%
Flareon Flareon Flareon Unseen Forces Holo Rare $ 42.29 0.64%
Flareon Flareon Flareon POP Series 3 Rare $ 15.83 -8.87%
Flareon Flareon Flareon POP Series 3 Rare $ 15.83 -8.87%
Flareon Flareon Flareon Majestic Dawn Rare $ 6.86 -0.15%
Flareon Flareon Flareon Rising Rivals Rare $ 7.31 -0.27%
Flareon Flareon Flareon Undaunted Uncommon $ 5.68 -0.53%
Flareon Flareon Flareon Call of Legends Uncommon $ 22.41 5.41%
Flareon Flareon Flareon Dark Explorers Uncommon $ 3.22 6.62%
Flareon (Delta Species) Flareon Delta Species Flareon Delta Species Delta Species Holo Rare $ 98.62 0.39%
Flareon (Team Plasma) Flareon Team Plasma Flareon Team Plasma Plasma Freeze Uncommon $ 5.92 1.89%
Flareon Star Flareon Star Flareon Star Power Keepers Ultra Rare $ 277.11 -1.63%
Flareon E4 Flareon E4 Flareon E4 Rising Rivals Common $ 1.52 13.43%
Flareon ex Flareon ex Flareon ex Delta Species Ultra Rare $ 179.97 6.08%
Light Flareon Light Flareon Light Flareon Neo Destiny Uncommon $ 42.67 0.40%
Flareon Flareon Flareon Black and White Promos Holo Rare $ 19.57 1.82%
Flareon

Flareon
Ancient Origins
$ 0.93 — 4.49%

Flareon (19)

Flareon 19
Jungle
$ 21.20 — -0.38%

Flareon

Flareon
Cosmic Eclipse
$ 1.50 — 5.63%

Flareon

Flareon
Vivid Voltage
$ 0.35 — 2.94%

Flareon VMAX

Flareon VMAX
Evolving Skies
$ 3.72 — -1.06%

Flareon (3)

Flareon 3
Jungle
$ 43.64 — 1.25%

Dark Flareon

Dark Flareon
Team Rocket
$ 8.65 — 1.76%

Flareon

Flareon
Sandstorm
$ 73.59 — 9.85%

Flareon (H7)

Flareon H7
Skyridge
$ 200.00 — 14.29%

Flareon

Flareon
Skyridge
$ 9.00 — -10.00%

Flareon

Flareon
Legendary Collection
$ 170.98 — -11.40%

Flareon

Flareon
Unseen Forces
$ 42.29 — 0.64%

Flareon

Flareon
POP Series 3
$ 15.83 — -8.87%

Flareon

Flareon
POP Series 3
$ 15.83 — -8.87%

Flareon

Flareon
Majestic Dawn
$ 6.86 — -0.15%

Flareon

Flareon
Rising Rivals
$ 7.31 — -0.27%

Flareon

Flareon
Undaunted
$ 5.68 — -0.53%

Flareon

Flareon
Call of Legends
$ 22.41 — 5.41%

Flareon

Flareon
Dark Explorers
$ 3.22 — 6.62%

Flareon Star

Flareon Star
Power Keepers
$ 277.11 — -1.63%

Flareon E4

Flareon E4
Rising Rivals
$ 1.52 — 13.43%

Flareon ex

Flareon ex
Delta Species
$ 179.97 — 6.08%

Light Flareon

Light Flareon
Neo Destiny
$ 42.67 — 0.40%

Flareon

Flareon
Black and White Promos
$ 19.57 — 1.82%